Total_Precipitation_Accumulation
0.00 0.00 0.00 0.00 0.17 0.39 0.21 0.63 0.56 0.15 0.06 0.00 0.01 0.00 0.01 0.01 0.04 0.08 0.00 0.00 0.00 0.00 0.06 0.20 0.14 0.05 0.01 0.00 0.09 0.37 0.14 0.05 0.01 0.03 0.06 0.03 0.06 0.09 0.05 0.09 0.18 0.19 0.07 0.08 0.07 0.10 0.11 0.12 0.12
0.00 0.00 0.00 0.12 0.41 1.03 0.32 0.42 0.65 0.34 0.04 0.00 0.00 0.00 0.01 0.01 0.00 0.00 0.00 0.01 0.00 0.00 0.00 0.00 0.02 0.02 0.04 0.03 0.11 0.10 0.04 0.07 0.11 0.07 0.12 0.11 0.06 0.15 0.16 0.19 0.23 0.12 0.12 0.10 0.11 0.10 0.14 0.23 0.16
0.00 0.00 0.13 0.50 1.32 1.21 0.72 0.68 0.74 0.19 0.00 0.00 0.01 0.02 0.00 0.00 0.00 0.00 0.00 0.01 0.00 0.01 0.00 0.00 0.01 0.02 0.04 0.06 0.08 0.05 0.06 0.05 0.10 0.16 0.28 0.21 0.16 0.29 0.17 0.14 0.19 0.11 0.16 0.19 0.13 0.13 0.20 0.21 0.23
0.00 0.03 0.24 1.29 2.48 0.80 0.58 0.38 0.18 0.05 0.01 0.01 0.00 0.00 0.00 0.00 0.00 0.00 0.00 0.00 0.01 0.02 0.00 0.00 0.01 0.04 0.11 0.07 0.10 0.12 0.06 0.04 0.06 0.07 0.16 0.17 0.15 0.13 0.08 0.09 0.12 0.09 0.06 0.04 0.09 0.24 0.27 0.34 0.32
0.01 0.43 1.93 1.70 1.29 1.22 0.70 0.24 0.05 0.06 0.04 0.03 0.00 0.00 0.01 0.01 0.00 0.00 0.00 0.01 0.00 0.00 0.00 0.01 0.13 0.11 0.14 0.13 0.16 0.13 0.07 0.08 0.12 0.23 0.21 0.14 0.09 0.04 0.08 0.07 0.06 0.04 0.09 0.06 0.08 0.21 0.35 0.39 0.26
0.15 1.22 1.87 0.40 0.39 1.09 0.83 0.16 0.16 0.20 0.12 0.09 0.01 0.00 0.03 0.00 0.00 0.00 0.00 0.01 0.00 0.00 0.00 0.02 0.18 0.16 0.16 0.17 0.13 0.09 0.14 0.12 0.18 0.11 0.06 0.07 0.06 0.11 0.05 0.02 0.02 0.05 0.12 0.16 0.08 0.14 0.33 0.31 0.19
0.20 2.08 1.24 0.25 0.27 0.92 0.62 0.20 0.38 0.23 0.11 0.11 0.04 0.00 0.04 0.01 0.00 0.00 0.00 0.03 0.02 0.00 0.00 0.00 0.02 0.14 0.14 0.22 0.12 0.04 0.03 0.07 0.13 0.10 0.08 0.05 0.09 0.17 0.09 0.07 0.06 0.06 0.12 0.17 0.26 0.31 0.30 0.29 0.18
0.18 1.12 1.68 0.37 0.94 0.96 0.47 0.26 0.36 0.15 0.09 0.09 0.04 0.02 0.02 0.01 0.01 0.04 0.05 0.05 0.03 0.01 0.00 0.02 0.00 0.03 0.03 0.09 0.16 0.07 0.04 0.06 0.14 0.11 0.14 0.15 0.19 0.09 0.08 0.08 0.04 0.04 0.10 0.24 0.29 0.25 0.11 0.15 0.11
0.29 0.99 1.14 0.96 0.96 0.67 0.24 0.36 0.84 0.25 0.04 0.07 0.02 0.00 0.00 0.01 0.00 0.01 0.03 0.04 0.02 0.03 0.08 0.04 0.01 0.04 0.05 0.03 0.06 0.05 0.05 0.14 0.24 0.19 0.26 0.26 0.22 0.09 0.08 0.08 0.04 0.07 0.09 0.08 0.18 0.12 0.08 0.13 0.11
0.83 1.03 1.31 0.71 0.46 0.27 0.16 0.58 0.30 0.08 0.04 0.02 0.01 0.00 0.00 0.00 0.00 0.00 0.01 0.01 0.00 0.02 0.03 0.10 0.01 0.01 0.00 0.01 0.06 0.14 0.10 0.24 0.14 0.11 0.06 0.07 0.04 0.03 0.05 0.08 0.02 0.02 0.14 0.19 0.09 0.13 0.30 0.12 0.03
0.63 1.26 0.36 0.53 0.21 0.19 0.30 0.36 0.08 0.08 0.20 0.04 0.00 0.00 0.00 0.00 0.00 0.00 0.00 0.00 0.01 0.02 0.04 0.00 0.00 0.02 0.01 0.01 0.02 0.04 0.02 0.01 0.01 0.01 0.01 0.01 0.00 0.04 0.12 0.16 0.05 0.03 0.12 0.32 0.13 0.05 0.07 0.06 0.08
0.58 0.68 0.49 0.36 0.28 0.28 0.39 0.17 0.18 0.18 0.34 0.06 0.00 0.00 0.00 0.00 0.00 0.00 0.00 0.00 0.00 0.02 0.01 0.00 0.01 0.09 0.03 0.00 0.00 0.00 0.00 0.00 0.00 0.00 0.00 0.01 0.00 0.01 0.02 0.12 0.20 0.08 0.10 0.35 0.19 0.08 0.04 0.03 0.01
0.25 0.38 0.59 0.58 0.45 0.34 0.28 0.32 0.27 0.37 0.85 0.05 0.01 0.00 0.00 0.00 0.00 0.00 0.00 0.00 0.00 0.01 0.00 0.00 0.01 0.02 0.00 0.00 0.00 0.00 0.00 0.00 0.00 0.00 0.00 0.00 0.03 0.06 0.07 0.16 0.11 0.15 0.15 0.16 0.13 0.18 0.03 0.05 0.00
0.17 0.34 0.46 0.52 0.60 0.38 0.31 0.48 0.26 0.26 0.36 0.05 0.01 0.00 0.00 0.00 0.00 0.00 0.00 0.00 0.00 0.01 0.00 0.00 0.00 0.00 0.00 0.00 0.00 0.00 0.00 0.00 0.00 0.00 0.00 0.00 0.02 0.05 0.14 0.10 0.11 0.23 0.07 0.06 0.12 0.24 0.01 0.00 0.00
0.08 0.32 0.41 0.24 0.44 0.26 0.36 1.01 0.63 0.24 0.13 0.04 0.02 0.01 0.00 0.00 0.00 0.00 0.00 0.00 0.00 0.00 0.00 0.00 0.00 0.00 0.00 0.00 0.00 0.00 0.00 0.00 0.00 0.03 0.04 0.03 0.02 0.03 0.17 0.14 0.27 0.12 0.11 0.12 0.16 0.07 0.00 0.00 0.00
0.03 0.26 0.38 0.15 0.23 0.30 0.65 2.04 1.07 0.41 0.26 0.09 0.03 0.03 0.00 0.00 0.00 0.00 0.00 0.00 0.00 0.00 0.00 0.00 0.00 0.00 0.00 0.00 0.01 0.01 0.12 0.07 0.01 0.02 0.03 0.01 0.04 0.05 0.06 0.04 0.05 0.05 0.14 0.07 0.11 0.03 0.00 0.00 0.00
0.00 0.16 0.31 0.47 0.16 0.22 0.50 1.97 1.46 0.29 0.24 0.12 0.01 0.01 0.00 0.00 0.00 0.00 0.00 0.00 0.00 0.00 0.00 0.00 0.00 0.00 0.00 0.00 0.00 0.01 0.02 0.02 0.01 0.01 0.04 0.05 0.04 0.04 0.05 0.02 0.03 0.08 0.09 0.03 0.01 0.01 0.01 0.00 0.00
0.00 0.05 0.18 0.34 0.51 0.62 0.61 0.21 0.13 0.11 0.30 0.16 0.03 0.01 0.00 0.00 0.00 0.00 0.00 0.00 0.00 0.00 0.00 0.00 0.00 0.00 0.00 0.00 0.01 0.02 0.02 0.04 0.01 0.02 0.02 0.02 0.05 0.06 0.06 0.05 0.04 0.13 0.02 0.00 0.04 0.00 0.01 0.00 0.00
0.00 0.01 0.06 0.22 0.74 0.86 0.60 0.27 0.29 0.14 0.37 0.31 0.04 0.02 0.00 0.00 0.00 0.00 0.00 0.00 0.00 0.00 0.00 0.00 0.00 0.00 0.00 0.00 0.01 0.01 0.02 0.02 0.00 0.02 0.03 0.07 0.09 0.07 0.04 0.07 0.05 0.04 0.03 0.04 0.02 0.01 0.00 0.00 0.00
0.00 0.00 0.06 0.16 0.57 1.25 2.19 1.14 0.74 0.46 0.37 0.39 0.13 0.04 0.01 0.00 0.00 0.00 0.00 0.00 0.00 0.00 0.00 0.00 0.00 0.00 0.00 0.00 0.00 0.01 0.01 0.01 0.01 0.05 0.03 0.04 0.05 0.07 0.07 0.10 0.05 0.05 0.09 0.05 0.02 0.03 0.01 0.00 0.00
0.00 0.01 0.04 0.08 0.20 0.69 1.41 1.69 0.93 0.45 0.61 0.72 0.24 0.08 0.01 0.00 0.00 0.00 0.00 0.00 0.00 0.00 0.00 0.00 0.00 0.00 0.00 0.00 0.00 0.03 0.03 0.02 0.09 0.10 0.05 0.04 0.03 0.03 0.11 0.07 0.05 0.07 0.03 0.03 0.03 0.03 0.00 0.00 0.00
0.00 0.01 0.00 0.00 0.01 0.04 0.12 0.36 0.30 0.34 0.45 1.07 0.46 0.24 0.05 0.01 0.00 0.00 0.01 0.00 0.00 0.00 0.00 0.00 0.00 0.00 0.00 0.01 0.00 0.02 0.02 0.02 0.04 0.10 0.11 0.14 0.05 0.07 0.09 0.04 0.10 0.07 0.05 0.09 0.02 0.02 0.01 0.00 0.00
0.01 0.01 0.00 0.00 0.02 0.02 0.01 0.10 0.35 0.44 0.49 0.52 0.57 0.78 0.31 0.03 0.01 0.01 0.01 0.00 0.00 0.00 0.00 0.00 0.00 0.00 0.00 0.00 0.04 0.02 0.07 0.08 0.07 0.11 0.14 0.24 0.21 0.18 0.13 0.15 0.13 0.13 0.09 0.06 0.02 0.03 0.00 0.02 0.01
0.00 0.00 0.00 0.01 0.04 0.04 0.00 0.02 0.27 0.54 0.46 0.51 0.27 0.75 1.11 0.52 0.11 0.05 0.02 0.01 0.00 0.00 0.00 0.00 0.00 0.00 0.00 0.00 0.03 0.04 0.04 0.09 0.09 0.10 0.16 0.15 0.17 0.10 0.09 0.10 0.13 0.12 0.11 0.10 0.03 0.06 0.01 0.01 0.01
0.00 0.00 0.00 0.02 0.02 0.00 0.00 0.00 0.08 0.49 0.49 0.39 0.34 0.48 0.92 1.06 0.40 0.16 0.11 0.06 0.03 0.00 0.00 0.00 0.00 0.00 0.00 0.00 0.01 0.01 0.03 0.06 0.15 0.12 0.07 0.08 0.23 0.04 0.04 0.08 0.19 0.10 0.07 0.07 0.06 0.05 0.02 0.05 0.05
0.00 0.00 0.00 0.00 0.00 0.00 0.00 0.01 0.01 0.02 0.05 0.06 0.17 0.14 0.20 0.25 0.61 0.23 0.21 0.16 0.13 0.05 0.00 0.00 0.00 0.00 0.00 0.00 0.00 0.01 0.03 0.03 0.12 0.04 0.03 0.01 0.07 0.07 0.19 0.10 0.07 0.10 0.11 0.03 0.06 0.05 0.03 0.05 0.03
0.00 0.00 0.00 0.00 0.00 0.00 0.04 0.02 0.03 0.01 0.04 0.04 0.03 0.09 0.12 0.11 0.11 0.16 0.26 0.26 0.15 0.04 0.00 0.00 0.00 0.00 0.00 0.00 0.00 0.00 0.00 0.01 0.01 0.01 0.06 0.01 0.03 0.11 0.20 0.20 0.12 0.15 0.08 0.06 0.10 0.04 0.10 0.09 0.02
0.00 0.00 0.00 0.00 0.00 0.00 0.11 0.14 0.12 0.07 0.07 0.04 0.02 0.02 0.05 0.12 0.38 0.47 0.37 0.36 0.31 0.15 0.05 0.01 0.02 0.01 0.02 0.01 0.01 0.01 0.03 0.01 0.01 0.02 0.02 0.06 0.09 0.10 0.26 0.37 0.12 0.12 0.05 0.03 0.05 0.05 0.04 0.07 0.04
0.00 0.00 0.00 0.00 0.00 0.00 0.10 0.31 0.19 0.15 0.04 0.05 0.09 0.09 0.14 0.13 0.40 1.31 1.32 1.10 0.87 0.60 0.21 0.28 0.31 0.24 0.09 0.01 0.01 0.01 0.01 0.02 0.02 0.02 0.02 0.03 0.05 0.14 0.18 0.35 0.24 0.16 0.04 0.02 0.07 0.07 0.06 0.10 0.04
0.00 0.00 0.00 0.00 0.00 0.00 0.02 0.26 0.23 0.25 0.14 0.13 0.16 0.10 0.12 0.18 0.26 0.65 1.31 2.05 2.17 1.83 1.50 0.78 0.91 0.76 0.41 0.20 0.10 0.05 0.05 0.05 0.02 0.06 0.01 0.00 0.03 0.07 0.14 0.11 0.30 0.17 0.08 0.07 0.09 0.05 0.07 0.19 0.07